QPF
0.00 0.00 0.00 0.00 0.00 0.00 0.00 0.00 0.00 0.00 0.00 0.00 0.00 0.01 0.04 0.09 0.13 0.13 0.11 0.10 0.09 0.04
0.00 0.00 0.00 0.00 0.00 0.00 0.00 0.00 0.00 0.00 0.00 0.00 0.00 0.00 0.00 0.05 0.10 0.12 0.14 0.10 0.05 0.01
0.00 0.00 0.00 0.00 0.00 0.00 0.00 0.00 0.00 0.00 0.00 0.00 0.00 0.00 0.00 0.00 0.02 0.04 0.04 0.01 0.00 0.00
0.00 0.00 0.00 0.00 0.00 0.00 0.00 0.00 0.00 0.00 0.00 0.00 0.00 0.00 0.00 0.00 0.00 0.00 0.00 0.00 0.00 0.00
0.00 0.00 0.00 0.00 0.00 0.00 0.00 0.00 0.00 0.00 0.00 0.00 0.00 0.00 0.00 0.00 0.00 0.00 0.00 0.00 0.00 0.00
0.00 0.00 0.00 0.00 0.00 0.00 0.00 0.00 0.00 0.00 0.00 0.00 0.00 0.00 0.00 0.00 0.00 0.00 0.00 0.00 0.00 0.00
0.00 0.00 0.00 0.00 0.00 0.00 0.00 0.00 0.00 0.00 0.00 0.00 0.00 0.00 0.00 0.00 0.00 0.00 0.00 0.00 0.00 0.00
0.00 0.00 0.00 0.00 0.00 0.00 0.00 0.00 0.00 0.00 0.00 0.00 0.00 0.00 0.00 0.00 0.00 0.00 0.00 0.00 0.00 0.00
0.00 0.00 0.00 0.00 0.00 0.00 0.00 0.00 0.00 0.00 0.00 0.00 0.00 0.00 0.00 0.00 0.00 0.00 0.00 0.00 0.00 0.00
0.00 0.00 0.00 0.00 0.00 0.00 0.00 0.00 0.00 0.00 0.00 0.00 0.00 0.00 0.00 0.00 0.00 0.00 0.00 0.00 0.00 0.00
0.00 0.00 0.00 0.00 0.00 0.00 0.00 0.00 0.00 0.00 0.00 0.00 0.00 0.00 0.00 0.00 0.00 0.00 0.00 0.00 0.00 0.00
0.00 0.00 0.00 0.00 0.00 0.00 0.00 0.00 0.00 0.00 0.00 0.00 0.00 0.00 0.00 0.00 0.00 0.00 0.00 0.00 0.00 0.00
0.00 0.00 0.00 0.00 0.00 0.00 0.00 0.00 0.00 0.00 0.00 0.00 0.00 0.00 0.00 0.00 0.00 0.00 0.00 0.00 0.00 0.00
0.00 0.00 0.00 0.00 0.00 0.00 0.00 0.00 0.00 0.00 0.00 0.00 0.00 0.00 0.00 0.00 0.00 0.00 0.00 0.00 0.00 0.00
MSLP
1002.50 1002.99 1003.35 1003.88 1004.23 1004.65 1004.81 1005.24 1005.99 1006.53 1006.93 1007.20 1007.75 1008.11 1008.34 1008.99 1009.71 1010.51 1010.81 1011.47 1011.97 1011.31
1002.17 1002.67 1003.07 1003.72 1004.20 1004.49 1005.01 1005.34 1005.88 1006.29 1006.69 1007.02 1007.26 1007.52 1008.04 1008.73 1009.33 1009.96 1010.86 1010.91 1010.84 1010.70
1001.93 1002.59 1003.01 1003.68 1004.07 1004.51 1005.00 1005.48 1005.89 1006.18 1006.41 1006.75 1007.05 1007.36 1007.85 1008.21 1008.65 1009.22 1009.66 1009.74 1009.95 1009.95
1001.77 1002.38 1003.06 1003.35 1003.90 1004.38 1004.95 1005.38 1005.73 1005.96 1006.27 1006.59 1006.98 1007.35 1007.72 1007.98 1008.29 1008.56 1008.86 1009.08 1009.12 1009.10
1001.84 1002.03 1002.62 1003.05 1003.67 1004.23 1004.64 1005.19 1005.48 1005.86 1006.08 1006.35 1006.67 1007.09 1007.27 1007.41 1007.61 1007.84 1008.07 1008.16 1008.38 1008.31
1001.98 1002.03 1002.18 1002.68 1003.37 1003.95 1004.36 1004.90 1005.30 1005.59 1005.79 1006.03 1006.31 1006.64 1006.89 1006.98 1007.08 1007.27 1007.50 1007.67 1007.83 1007.96
1001.67 1001.82 1002.20 1002.57 1003.11 1003.55 1004.04 1004.55 1004.87 1005.10 1005.27 1005.57 1005.87 1006.14 1006.41 1006.66 1006.89 1007.10 1007.23 1007.45 1007.66 1007.68
1000.98 1001.25 1001.82 1002.40 1002.48 1002.92 1003.50 1003.97 1004.42 1004.70 1004.89 1005.22 1005.54 1005.75 1006.11 1006.43 1006.66 1006.88 1007.10 1007.35 1007.41 1007.34
1000.76 1000.87 1001.23 1001.75 1002.19 1002.35 1002.85 1003.40 1003.90 1004.30 1004.45 1004.81 1005.00 1005.77 1006.22 1006.52 1006.54 1006.77 1006.91 1006.86 1006.77 1006.73
1000.78 1000.69 1000.93 1001.27 1001.68 1002.07 1002.35 1002.88 1003.50 1003.95 1004.28 1004.62 1005.01 1005.63 1006.00 1006.39 1006.32 1006.46 1006.52 1006.51 1006.37 1006.16
1000.64 1000.82 1000.65 1000.99 1001.11 1001.61 1002.09 1002.28 1002.99 1003.65 1004.04 1004.47 1004.81 1005.38 1005.66 1006.01 1006.05 1006.01 1006.14 1006.20 1006.12 1005.91
1000.61 1000.65 1000.42 1000.63 1000.92 1001.30 1001.69 1002.07 1002.40 1003.00 1003.57 1004.05 1004.48 1005.04 1005.31 1005.60 1005.31 1005.37 1005.63 1005.68 1005.53 1005.35
999.54 999.58 999.44 1000.07 1000.67 1000.85 1001.15 1001.55 1001.86 1002.36 1002.87 1003.32 1003.83 1004.50 1004.87 1005.04 1004.85 1005.05 1005.18 1005.07 1004.90 1004.80
998.50 998.72 998.94 999.39 999.90 1000.35 1000.43 1000.90 1001.32 1001.70 1002.27 1002.80 1003.17 1003.59 1004.23 1004.62 1004.72 1004.65 1004.60 1004.41 1004.07 1003.74
Thickness
5693 5692 5692 5690 5692 5693 5696 5699 5698 5698 5698 5700 5698 5697 5697 5693 5689 5683 5681 5677 5675 5678
5678 5678 5678 5677 5678 5682 5684 5685 5686 5687 5689 5691 5692 5692 5689 5683 5681 5677 5671 5670 5672 5675
5666 5663 5665 5664 5665 5667 5669 5671 5673 5676 5680 5680 5681 5682 5680 5677 5675 5672 5671 5673 5673 5675
5652 5651 5651 5652 5654 5656 5657 5659 5661 5665 5667 5667 5668 5669 5669 5669 5670 5669 5669 5671 5671 5672
5638 5641 5640 5641 5642 5644 5644 5646 5650 5652 5655 5656 5658 5659 5661 5663 5665 5666 5667 5670 5670 5671
5624 5630 5633 5633 5633 5633 5634 5635 5637 5640 5643 5646 5649 5651 5654 5658 5661 5663 5664 5664 5664 5665
5615 5619 5621 5623 5624 5625 5626 5625 5628 5631 5635 5638 5641 5644 5647 5650 5652 5654 5657 5658 5658 5660
5610 5615 5614 5615 5620 5620 5619 5620 5621 5623 5627 5630 5633 5637 5639 5641 5644 5646 5647 5649 5651 5654
5598 5605 5610 5611 5613 5615 5614 5614 5615 5616 5620 5622 5627 5624 5626 5630 5634 5637 5640 5643 5647 5651
5584 5591 5597 5602 5604 5606 5608 5608 5607 5609 5611 5614 5617 5616 5618 5620 5628 5631 5634 5638 5642 5647
5568 5573 5583 5588 5595 5597 5598 5601 5601 5600 5603 5606 5609 5608 5611 5613 5622 5626 5629 5633 5637 5642
5552 5559 5568 5575 5581 5585 5588 5590 5594 5595 5596 5599 5601 5600 5603 5608 5618 5622 5624 5628 5633 5639
5546 5554 5563 5565 5567 5575 5579 5581 5586 5588 5590 5594 5597 5593 5596 5603 5611 5614 5618 5624 5630 5631
5538 5546 5552 5555 5559 5563 5570 5572 5576 5581 5584 5586 5591 5594 5590 5593 5601 5607 5612 5620 5628 5635